STARLINK-31763 (59623 NORAD) Tracking and Keplerian Element Data

This shows tracking and keplerian element data for the satellite.

Feedback or suggestion? Click here.




ElementValue
Catalog59623
NameSTARLINK-31763
Epoch Orbit748
Epoch Day160.07757743
Epoch Year2024
RAAN88.0558
Inclination43.0012
Eccentricity0.0002032
Argument of Perigee255.849
Mean Anonmoly104.2141
Mean Motion15.4070561
Decay Rate3.584E-05
L11 59623U 24080Y 24160.07757743 .00003584 00000+0 93007-4 0 9994
L22 59623 43.0012 88.0558 0002032 255.8490 104.2141 15.40705610 7482



Live tracking and technical data element details for STARLINK-31763 (NORAD 59623). STARLINK-31763 can be tracked NOW for your location showing map with azimuth and elevation plus other details from your city location.







IsCatalogInMostPopularTable: catalog: 59623, numindb: 29
Update: records affected: 1



GetName: 59623 STARLINK-31763

Hit Count: updated at: Fri, 14 Jun 2024 17:55:15 GMT